When you browse on this site, cookies collect data to enhance your experience and personalize the content and advertising you see.
Visit our Privacy Policy to learn more. By continuing to use the site, you agree to this use of cookies and data.
  • In France
  • List of Countries
  • For 7 days
  • Water Temperature
  • Weather Map
  • Weather Widgets
  • user-avatar
    Login

    Hourly Weather Buenos Aires

    Today, 19 September, Thursday

    Time Temperature Precipitation Wind Pressure Humidity
    00:00 +23°C° 0.3 mm 1 mps 717 mmHg 97%
    01:00 +23°C° 0.3 mm 1 mps 717 mmHg 96%
    02:00 +23°C° 0.3 mm 1 mps 716 mmHg 96%
    03:00 +23°C° 0.3 mm 1 mps 716 mmHg 96%
    04:00 +23°C° 0.3 mm 1 mps 716 mmHg 96%
    05:00 +23°C° 0.3 mm 1 mps 716 mmHg 96%
    06:00 +23°C° 0.7 mm 1 mps 716 mmHg 95%
    07:00 +21°C° 0.7 mm 0 mps 717 mmHg 95%
    08:00 +22°C° 0.7 mm 0 mps 717 mmHg 94%
    09:00 +22°C° 0.5 mm 0 mps 717 mmHg 95%
    10:00 +22°C° 0.5 mm 0 mps 717 mmHg 96%
    11:00 +22°C° 0.5 mm 0 mps 717 mmHg 96%
    12:00 +25°C° 0 mm 1 mps 716 mmHg 90%
    13:00 +27°C° 0 mm 1 mps 716 mmHg 84%
    14:00 +28°C° 0 mm 1 mps 715 mmHg 78%
    15:00 +28°C° 0.1 mm 1 mps 715 mmHg 81%
    16:00 +27°C° 0.1 mm 1 mps 714 mmHg 84%
    17:00 +25°C° 0.1 mm 0 mps 714 mmHg 87%
    18:00 +24°C° 0.1 mm 0 mps 715 mmHg 89%
    19:00 +23°C° 0.1 mm 0 mps 715 mmHg 91%
    20:00 +22°C° 0.1 mm 0 mps 716 mmHg 92%
    21:00 +22°C° 0 mm 0 mps 716 mmHg 93%
    22:00 +21°C° 0 mm 0 mps 716 mmHg 93%
    23:00 +21°C° 0 mm 0 mps 716 mmHg 93%

    Tomorrow, 20 September, Friday

    Time Temperature Precipitation Wind Pressure Humidity
    00:00 +21°C° 0 mm 0 mps 715 mmHg 93%
    01:00 +21°C° 0 mm 0 mps 715 mmHg 93%
    02:00 +21°C° 0 mm 0 mps 715 mmHg 94%
    03:00 +20°C° 0 mm 0 mps 715 mmHg 94%
    04:00 +20°C° 0 mm 0 mps 715 mmHg 94%
    05:00 +20°C° 0 mm 0 mps 714 mmHg 94%
    06:00 +21°C° 0 mm 0 mps 715 mmHg 90%
    07:00 +23°C° 0 mm 0 mps 715 mmHg 86%
    08:00 +24°C° 0 mm 0 mps 716 mmHg 83%
    09:00 +28°C° 0.1 mm 1 mps 715 mmHg 78%
    10:00 +29°C° 0.1 mm 1 mps 715 mmHg 74%
    11:00 +31°C° 0.1 mm 1 mps 715 mmHg 69%
    12:00 +31°C° 0.1 mm 1 mps 715 mmHg 67%
    13:00 +32°C° 0.1 mm 1 mps 714 mmHg 65%
    14:00 +30°C° 0.1 mm 0 mps 714 mmHg 64%
    15:00 +29°C° 0.2 mm 0 mps 714 mmHg 68%
    16:00 +28°C° 0.2 mm 0 mps 714 mmHg 73%
    17:00 +27°C° 0.2 mm 0 mps 713 mmHg 78%
    18:00 +26°C° 0.4 mm 0 mps 714 mmHg 82%
    19:00 +27°C° 0.4 mm 1 mps 715 mmHg 85%
    20:00 +25°C° 0.4 mm 1 mps 715 mmHg 89%
    21:00 +25°C° 0.3 mm 1 mps 715 mmHg 90%
    22:00 +24°C° 0.3 mm 1 mps 716 mmHg 92%
    23:00 +24°C° 0.3 mm 1 mps 716 mmHg 93%

    Day after tomorrow, 21 September, Saturday

    Time Temperature Precipitation Wind Pressure Humidity
    00:00 +23°C° 0.1 mm 1 mps 716 mmHg 94%
    01:00 +21°C° 0.1 mm 0 mps 715 mmHg 94%
    02:00 +21°C° 0.1 mm 0 mps 715 mmHg 94%
    03:00 +21°C° 0 mm 0 mps 715 mmHg 94%
    04:00 +21°C° 0 mm 0 mps 715 mmHg 93%
    05:00 +23°C° 0 mm 1 mps 715 mmHg 93%
    06:00 +22°C° 0 mm 0 mps 716 mmHg 90%
    07:00 +23°C° 0 mm 0 mps 716 mmHg 87%
    08:00 +25°C° 0 mm 0 mps 717 mmHg 84%
    09:00 +28°C° 0 mm 1 mps 716 mmHg 79%
    10:00 +30°C° 0 mm 1 mps 716 mmHg 75%
    11:00 +31°C° 0 mm 1 mps 716 mmHg 70%
    12:00 +32°C° 0.1 mm 1 mps 715 mmHg 68%
    13:00 +32°C° 0.1 mm 1 mps 714 mmHg 67%
    14:00 +33°C° 0.1 mm 1 mps 714 mmHg 65%
    15:00 +32°C° 0.2 mm 1 mps 714 mmHg 70%
    16:00 +31°C° 0.2 mm 1 mps 714 mmHg 75%
    17:00 +28°C° 0.2 mm 0 mps 714 mmHg 80%
    18:00 +28°C° 0.2 mm 1 mps 714 mmHg 83%
    19:00 +27°C° 0.2 mm 1 mps 715 mmHg 85%
    20:00 +25°C° 0.2 mm 1 mps 715 mmHg 88%
    21:00 +25°C° 0.3 mm 1 mps 715 mmHg 88%
    22:00 +25°C° 0.3 mm 1 mps 716 mmHg 89%
    23:00 +24°C° 0.3 mm 1 mps 716 mmHg 89%

    22 September, Sunday

    Time Temperature Precipitation Wind Pressure Humidity
    00:00 +24°C° 0.3 mm 1 mps 715 mmHg 89%
    01:00 +22°C° 0.3 mm 0 mps 715 mmHg 89%
    02:00 +22°C° 0.3 mm 0 mps 715 mmHg 89%
    03:00 +22°C° 0.5 mm 0 mps 715 mmHg 90%
    04:00 +21°C° 0.5 mm 0 mps 715 mmHg 90%
    05:00 +21°C° 0.5 mm 0 mps 715 mmHg 91%
    06:00 +22°C° 0 mm 0 mps 716 mmHg 88%
    07:00 +24°C° 0 mm 0 mps 716 mmHg 85%
    08:00 +25°C° 0 mm 0 mps 717 mmHg 82%
    09:00 +27°C° 0.1 mm 0 mps 716 mmHg 78%
    10:00 +30°C° 0.1 mm 1 mps 716 mmHg 74%
    11:00 +32°C° 0.1 mm 1 mps 716 mmHg 70%
    12:00 +32°C° 0.1 mm 1 mps 715 mmHg 68%
    13:00 +33°C° 0.1 mm 1 mps 714 mmHg 66%
    14:00 +33°C° 0.1 mm 1 mps 714 mmHg 64%
    15:00 +32°C° 0.3 mm 1 mps 714 mmHg 68%
    16:00 +31°C° 0.3 mm 1 mps 714 mmHg 73%
    17:00 +28°C° 0.3 mm 0 mps 714 mmHg 78%
    18:00 +29°C° 0.4 mm 1 mps 714 mmHg 81%
    19:00 +27°C° 0.4 mm 1 mps 714 mmHg 83%
    20:00 +26°C° 0.4 mm 1 mps 715 mmHg 86%
    21:00 +25°C° 1.2 mm 1 mps 715 mmHg 88%
    22:00 +25°C° 1.2 mm 1 mps 716 mmHg 90%
    23:00 +25°C° 1.2 mm 1 mps 716 mmHg 92%

    23 September, Monday

    Time Temperature Precipitation Wind Pressure Humidity
    00:00 +24°C° 0.9 mm 1 mps 716 mmHg 92%
    01:00 +24°C° 0.9 mm 1 mps 715 mmHg 93%
    02:00 +23°C° 0.9 mm 1 mps 715 mmHg 94%
    03:00 +23°C° 0.2 mm 1 mps 715 mmHg 93%
    04:00 +23°C° 0.2 mm 1 mps 715 mmHg 93%
    05:00 +21°C° 0.2 mm 0 mps 715 mmHg 92%
    06:00 +22°C° 0 mm 0 mps 716 mmHg 90%
    07:00 +23°C° 0 mm 0 mps 717 mmHg 88%
    08:00 +24°C° 0 mm 0 mps 717 mmHg 86%
    09:00 +26°C° 0 mm 0 mps 717 mmHg 79%
    10:00 +30°C° 0 mm 1 mps 717 mmHg 73%
    11:00 +32°C° 0 mm 1 mps 717 mmHg 66%
    12:00 +32°C° 0.1 mm 1 mps 716 mmHg 66%
    13:00 +32°C° 0.1 mm 1 mps 715 mmHg 65%
    14:00 +30°C° 0.1 mm 0 mps 715 mmHg 64%
    15:00 +29°C° 0.3 mm 0 mps 715 mmHg 69%
    16:00 +28°C° 0.3 mm 0 mps 715 mmHg 73%
    17:00 +27°C° 0.3 mm 0 mps 714 mmHg 78%
    18:00 +26°C° 0.2 mm 0 mps 715 mmHg 81%
    19:00 +27°C° 0.2 mm 1 mps 715 mmHg 83%
    20:00 +26°C° 0.2 mm 1 mps 715 mmHg 86%
    21:00 +25°C° 0.2 mm 1 mps 716 mmHg 87%
    22:00 +25°C° 0.2 mm 1 mps 716 mmHg 89%
    23:00 +23°C° 0.2 mm 0 mps 716 mmHg 90%

    24 September, Tuesday

    Time Temperature Precipitation Wind Pressure Humidity
    00:00 +22°C° 0.6 mm 0 mps 716 mmHg 91%
    01:00 +22°C° 0.6 mm 0 mps 715 mmHg 93%
    02:00 +22°C° 0.6 mm 0 mps 715 mmHg 94%
    03:00 +22°C° 0.4 mm 0 mps 715 mmHg 94%
    04:00 +22°C° 0.4 mm 0 mps 715 mmHg 94%
    05:00 +21°C° 0.4 mm 0 mps 715 mmHg 94%
    06:00 +22°C° 0.1 mm 0 mps 716 mmHg 92%
    07:00 +24°C° 0.1 mm 0 mps 716 mmHg 89%
    08:00 +25°C° 0.1 mm 0 mps 717 mmHg 86%
    09:00 +26°C° 0.1 mm 0 mps 716 mmHg 80%
    10:00 +30°C° 0.1 mm 1 mps 716 mmHg 74%
    11:00 +31°C° 0.1 mm 1 mps 716 mmHg 69%
    12:00 +32°C° 0.1 mm 1 mps 715 mmHg 67%
    13:00 +30°C° 0.1 mm 0 mps 715 mmHg 66%
    14:00 +31°C° 0.1 mm 0 mps 714 mmHg 65%
    15:00 +30°C° 0.2 mm 0 mps 714 mmHg 69%
    16:00 +29°C° 0.2 mm 0 mps 714 mmHg 74%
    17:00 +27°C° 0.2 mm 0 mps 714 mmHg 78%
    18:00 +28°C° 0.3 mm 1 mps 714 mmHg 81%
    19:00 +27°C° 0.3 mm 1 mps 715 mmHg 85%
    20:00 +26°C° 0.3 mm 1 mps 715 mmHg 88%
    21:00 +25°C° 1 mm 1 mps 715 mmHg 90%
    22:00 +25°C° 1 mm 1 mps 715 mmHg 92%
    23:00 +24°C° 1 mm 1 mps 715 mmHg 94%
    Show more